Regional Weather Roundup
Issued by NWS Pendleton, OR

Home | Current Version | Previous Version | Text Only | Print | Product List | Glossary On
Versions: 1 2 3 4 5 6 7 8 9 10 11 12 13 14 15 16 17 18 19 20 21 22 23 24 25 26 27 28 29 30 31 32 33 34 35 36 37 38 39 40 41 42 43 44 45 46 47 48 49 50
000
ASUS46 KPDT 261725
RWRPDT
PENDLETON REGIONAL WEATHER ROUNDUP
NATIONAL WEATHER SERVICE PENDLETON OREGON
1000 AM PDT TUE SEP 26 2017

NOTE: FAIR INDICATES FEW OR NO CLOUDS BELOW 12,000 FEET WITH NO
SIGNIFICANT WEATHER AND/OR OBSTRUCTIONS TO VISIBILITY.

# INDICATES UNOFFICIAL STATION AND DATA

WAZ520-261810-
EAST SLOPES OF WASHINGTON CASCADES

CITY            SKY/WX      TMP DP  RH  WIND    PRES   REMARKS
#BULLFROG       N/A         57  48  72  E1      N/A
#CLE ELUM HS    N/A         59  47  64  CALM    30.13S
#CLE ELUM LAKE  N/A         56  48  74  CALM    30.15S
#EASTON DOT     N/A         49  48  96  CALM    N/A
#ELK HTS DOT    N/A         57  57  100 CALM    N/A
#GLENWOOD       N/A         50  49  96  CALM    30.18S
#NELSON 3SW     N/A         54  48  80  CALM    30.36S
#NILE           N/A         54  47  77  W3      29.47F
#TROUT LAKE 1NE N/A         56  50  80  CALM    30.16S
#TROUT LAKE 1E  N/A         51  50  96  CALM    30.21R
$$

WAZ521-261810-
SIMCOE HIGHLANDS

CITY            SKY/WX      TMP DP  RH  WIND    PRES   REMARKS
#BICKLETON HS   N/A         61  51  70  E9      30.14S
#CENTERVILLE 1SWN/A         55  49  80  CALM    30.12F
#GOLDENDALE 1NE N/A         57  44  62  CALM    N/A
#GOLDENDALE 4W  N/A         61  29  30  CALM    30.21S
#GOODNOE HILLS  N/A         64  55  73  SE3     N/A
#LYLE 6NE       N/A         54  50  86  N2      30.16
#PITT 4SE       N/A         59  52  78  NE1     30.18R
$$

WAZ026-261810-
KITTITAS VALLEY

CITY            SKY/WX      TMP DP  RH  WIND    PRES   REMARKS
ELLENSBURG AP   SUNNY       59  47  64  E3      30.20R
#ELLENSBURG CWU N/A         59  48  67  CALM    30.12S
#ELLENSBURG 3NE N/A         55  49  80  CALM    28.27R
#ELLENSBURG 1E  N/A         57  48  72  CALM    30.21F
#KITTITAS 3S    N/A         56  50  80  CALM    30.17S
#MANASTASH RDG  N/A         55  55  100 NW9     N/A
#ROCKY CYN DOT  N/A         62  46  56  NW5     N/A
#RYEGRASS DOT   N/A         57  44  62  W6      N/A
$$

WAZ027-261810-
YAKIMA VALLEY

CITY            SKY/WX      TMP DP  RH  WIND    PRES   REMARKS
SUNNYSIDE AP    SUNNY       59  49  69  CALM    30.19R
YAKIMA AIRPORT  SUNNY       65  49  56  VRB5    30.20R
YAKIMA-VAGABOND SUNNY       61  47  60  NW3     30.18R
#DONALD 2NE     N/A         73  20  13  SW2     30.18R
#GRANDVIEW      N/A         62  49  62  CALM    30.18S
#MABTON         N/A         61  52  72  CALM    30.18R
#MOXEE 2E       N/A         64  N/A N/A W1      30.09F
#NACHES 2SW     N/A         60  49  67  NE2     30.20R
#OUTLOOK DOT    N/A         61  51  70  CALM    30.15S
#PARKER DOT     N/A         64  47  54  SE5     30.18R
#TERRACE HTS    N/A         58  50  75  CALM    30.13R
#TOPPENISH      N/A         61  50  67  CALM    30.09R
#I82 S UMTANUM RN/A         61  47  60  CALM    N/A
#UNION GAP DOT  N/A         61  47  60  NW6     30.21S
#W YAKIMA       N/A         61  50  67  N3      30.16S
#WHITE SWAN 5E  N/A         62  52  70  CALM    30.17F
#WILEY CITY 3W  N/A         62  45  54  CALM    30.17R
#ZILLAH DOT     N/A         61  49  65  SW2     N/A
$$

WAZ028-261810-
LOWER COLUMBIA BASIN...WASHINGTON

CITY            SKY/WX      TMP DP  RH  WIND    PRES   REMARKS
HANFORD         MOSUNNY     62  49  62  N3      30.15S
PASCO           MOCLDY      66  50  56  NW6     30.18R
PROSSER AWOS    N/A         63  50  62  SW3     30.22R
RICHLAND AWOS   SUNNY       68  51  55  CALM    30.18S
#BENTON CITY    N/A         65  51  60  CALM    30.07S
#CONNELL 5N     N/A         65  52  63  CALM    30.16R
#CONNELL 5NW    N/A         64  51  63  W5      30.11R
#ELTOPIA 6NW    N/A         62  54  75  CALM    29.15R
#KAHLOTUS       N/A         66  52  61  CALM    30.14S
#KENNEWICK 3S   N/A         63  55  75  CALM    30.16R
#PATERSON       N/A         60  53  78  CALM    30.15S
#PROSSER DOT    N/A         63  49  60  CALM    30.18S
#SAGEMOOR 2W    N/A         63  55  75  CALM    30.02S
#TOUCHET 2S     N/A         63  54  72  CALM    30.14S
#WEST PASCO     N/A         66  54  65  CALM    30.18R
$$

WAZ029-261810-
FOOTHILLS OF THE BLUES...WASHINGTON

CITY            SKY/WX      TMP DP  RH  WIND    PRES   REMARKS
WALLA WALLA AP  CLOUDY      65  51  60  W5      30.18R
#CLYDE 6NW      N/A         62  51  67  SW1     30.14R
#DAYTON SCHOOL  N/A         64  47  54  CALM    30.18R
#LOWDEN 2SE     N/A         65  55  70  CALM    30.14R
#PLEASANT VIEW 1N/A         65  51  60  SW2     30.18R
#PRESCOTT       N/A         66  55  68  CALM    30.15R
#WHITMAN COLLEGEN/A         64  52  65  CALM    30.20R
#WAITSBURG 6SSE N/A         64  49  58  W2      30.17R
#WALLA WALLA 5E N/A         65  53  65  W6      N/A
#WALLA WALLA U  N/A         64  53  67  CALM    30.14
#WHITMAN MISSIONN/A         63  56  78  CALM    30.16S
$$

WAZ030-261810-
BLUE MOUNTAINS...WASHINGTON

CITY            SKY/WX      TMP DP  RH  WIND    PRES   REMARKS
#DIXIE 5SE      N/A         58  48  69  NE2     30.13R
$$

ORZ009-041-WAZ024-261810-
COLUMBIA RIVER GORGE

CITY            SKY/WX      TMP DP  RH  WIND    PRES   REMARKS
THE DALLES AP   SUNNY       61  52  72  CALM    30.17S
#ARLINGTON AIRPON/A         63  52  67  E2      30.17R
#CELILO DOT     N/A         58  50  75  SE2     N/A
#LYLE           N/A         59  51  75  CALM    30.18S
#MARYHILL       N/A         62  52  70  N1      N/A
#MURDOCK        N/A         61  53  75  W3      30.13S
#RUFUS DOT      N/A         62  N/A N/A W3      N/A
#SMITHVILLE     N/A         62  53  72  N3      30.11S

$$

ORZ510-261810-
NORTH CENTRAL OREGON

CITY            SKY/WX      TMP DP  RH  WIND    PRES   REMARKS
#ANTELOPE       N/A         57  49  75  CALM    30.02S
#CHENOWITH 1W   N/A         59  52  78  W3      N/A
#COW CYN RST AREN/A         59  48  67  E2      N/A
#DUFUR          N/A         62  52  70  CALM    30.12S
#DUFUR 9E       N/A         58  50  75  CALM    30.19R
#GRASS VALLEY 1SN/A         61  51  70  CALM    30.20R
#KENT DOT       N/A         63  42  46  NE2     N/A
#MAUPIN SCHOOL  N/A         58  49  72  CALM    30.22S
#MORO SCHOOL    N/A         61  56  84  N1      30.17R
#SHANIKO 5WSW   N/A         55  38  53  SE3     N/A
#SHANIKO 4NW    N/A         56  47  72  E2      30.20R
#TYGH VALLEY 2NEN/A         58  50  75  CALM    30.16R
#WAPANITIA AIRPON/A         59  51  75  CALM    30.16S
#WASCO DOT      N/A         63  48  58  NE6     N/A
#WASCO 5NE      N/A         61  52  72  CALM    30.15R
$$

ORZ511-261810-
CENTRAL OREGON

CITY            SKY/WX      TMP DP  RH  WIND    PRES   REMARKS
BEND AIRPORT    SUNNY       61  46  58  CALM    30.21R
MADRAS AIRPORT  SUNNY       59  59  100 CALM    30.22R
PRINEVILLE AP   SUNNY       57  46  67  CALM    30.21R
REDMOND AIRPORT SUNNY       57  43  59  VRB3    30.20R
#ASHWOOD SCHOOL N/A         56  48  74  CALM    30.14S
#BEND 1SW       N/A         53  46  77  CALM    N/A
#BEND-AWBREY    N/A         55  49  80  CALM    30.12S
#BEND-KIM LN    N/A         56  49  77  NE1     30.09R
#CULVER 8W      N/A         65  46  50  E5      30.18S
#LAKE BILLY CHINN/A         57  N/A N/A NE5     30.21F
#MADRAS 4S      N/A         57  15  19  CALM    N/A
#POWELL BUTTE   N/A         56  47  72  W2      30.13R
#PRINEVILLE     N/A         56  47  72  CALM    30.22S
#PRINEVILLE 3N  N/A         54  48  80  CALM    30.13F
#WARM SPRINGS   N/A         58  49  72  CALM    30.03S

$$


ORZ509-261810-
EAST SLOPES OF OREGON CASCADES

CITY            SKY/WX      TMP DP  RH  WIND    PRES   REMARKS
SISTERS AWOS    N/A         55  46  72  CALM    N/A
#BLUE BOX PASS  N/A         50  N/A N/A SE2     N/A
#CAMP SHERMAN   N/A         53  48  83  CALM    30.22F
#LA PINE DOT    N/A         48  36  63  CALM    N/A
#LA PINE 4NW    N/A         43  40  89  CALM    30.22F
#LAVA BUTTE DOT N/A         55  39  55  CALM    N/A
#SISTERS ODOT   N/A         56  46  69  E1      N/A
#SISTERS 3N     N/A         58  48  69  CALM    30.20S
#SUNRIVER       N/A         47  43  86  S1      30.18F
#TUMALO 3W      N/A         57  47  69  CALM    29.99S
#WANOGA BUTTE D N/A         51  43  74  NE3     N/A

$$

ORZ044-261810-
LOWER COLUMBIA BASIN...OREGON

CITY            SKY/WX      TMP DP  RH  WIND    PRES   REMARKS
HERMISTON       SUNNY       64  52  65  NW5     30.17S
#BOARDMAN SCHOOLN/A         61  54  78  W1      30.16R
#BOARDMAN 8SW   N/A         63  54  72  NW2     30.17R
#ECHO 8SW       N/A         66  53  63  NW1     30.18R
#I-84 EX 198 DOTN/A         63  52  67  CALM    N/A
#IONE SCHOOL    N/A         62  39  43  CALM    30.16S
#UMATILLA       N/A         66  51  58  CALM    30.09S
$$

ORZ507-261810-
NORTHERN FOOTHILLS OF THE BLUES

CITY            SKY/WX      TMP DP  RH  WIND    PRES   REMARKS
PENDLETON AIRPT CLOUDY      62  50  65  CALM    30.18R
#ADAMS 3WNW     N/A         62  51  67  CALM    30.14S
#ATHENA         N/A         62  52  70  CALM    30.17S
#CAYUSE         N/A         60  51  72  W1      30.14R
#HELIX 3N       N/A         60  50  69  W5      30.15R
#HOLDMAN 5SE    N/A         62  51  67  CALM    30.16S
#HOLDMAN 6E     N/A         61  52  72  CALM    29.96R
#M-F GROVE ELEM N/A         65  49  56  CALM    30.14S
#M-FREEWATER 5SEN/A         63  52  67  CALM    30.16R
#PENDLETON DNTN N/A         62  53  72  CALM    30.16S
#PDT SUNRIDGE   N/A         59  51  75  CALM    30.20R
#PENDLETON 7NW  N/A         61  51  70  CALM    26.80F
#PILOT ROCK     N/A         64  51  63  CALM    30.19S
#TUTUILLA       N/A         59  52  78  CALM    30.23R
#UMAPINE 2E     N/A         66  55  68  N1      30.15R
#WESTON SCHOOL  N/A         61  49  65  CALM    30.09S

$$

ORZ508-261810-
SOUTHERN FOOTHILLS OF THE BLUES

CITY            SKY/WX      TMP DP  RH  WIND    PRES   REMARKS
LEXINGTON       SUNNY       64  50  60  CALM    30.21S
#AJAX           N/A         58  44  60  W2      30.32R
#FOSSIL SCHOOL  N/A         59  50  72  CALM    30.12F
#HEPPNER EOC    N/A         63  49  60  CALM    30.07S
#HEPPNER 4NE    N/A         61  50  67  CALM    30.12S
#LEXINGTON 2SE  N/A         65  51  60  NW1     30.16S
#MIKKALO        N/A         61  49  65  W1      30.27S
#OLEX 4N        N/A         61  52  72  SW3     30.16R
#RUGGS 5NE      N/A         64  48  56  CALM    30.36R
#RUGGS 2SW      N/A         61  49  65  CALM    30.15R

$$

ORZ502-503-261810-
BLUE MOUNTAINS

CITY            SKY/WX      TMP DP  RH  WIND    PRES   REMARKS
MEACHAM         CLOUDY      55  46  72  CALM    30.22R
#BATTLE MTN DOT N/A         53  44  71  SE2     N/A
#GRANITE        N/A         51  41  68  CALM    30.15R
#GREENHORN 9SW  N/A         58  45  62  W1      26.39R
#HEPPNER 15SE   N/A         57  46  67  CALM    30.10R
#LADD CYN SMT   N/A         54  44  69  W2      N/A
#LADD CREEK ODOTN/A         53  45  74  NE6     N/A
#LONG CREEK HS  N/A         56  48  74  CALM    30.22R
#N POWDER DOT   N/A         54  44  69  SW1     N/A
#PIKES PEAK     N/A         54  47  77  CALM    27.99S
#SUMMERVILLE 5NWN/A         58  50  75  CALM    28.15R
#TOLLGATE       N/A         50  43  77  N3      30.07S
#TROY SCHOOL    N/A         64  51  63  CALM    30.01F
#UKIAH          N/A         55  48  77  CALM    30.07F
#WESTON 4E      N/A         58  50  75  CALM    30.11R
$$

ORZ505-261810-
JOHN DAY BASIN

CITY            SKY/WX      TMP DP  RH  WIND    PRES   REMARKS
JOHN DAY        CLOUDY      58  45  62  CALM    30.21S
#JOHN DAY KJDY  N/A         60  N/A N/A CALM    29.70R
#ANTELOPE 9ESE  N/A         61  49  65  E1      N/A
#DAYVILLE SCHOOLN/A         62  44  52  CALM    30.14S
#MITCHELL       N/A         62  53  72  CALM    30.34S
#MITCHELL 8NW   N/A         58  46  64  NW2     30.17R
#MONUMENT HS    N/A         61  45  56  CALM    30.14R
#MT. VERNON 5SE N/A         57  45  64  CALM    30.17R
#WINLOCK        N/A         68  47  47  CALM    30.15R
$$

ORZ506-261810-
OCHOCO AND JOHN DAY HIGHLANDS

CITY            SKY/WX      TMP DP  RH  WIND    PRES   REMARKS
#HORSE RIDGE DO N/A         53  40  61  CALM    N/A
#PAULINA ODOT   N/A         55  42  61  S1      N/A
#PINE MTN OBS   N/A         50  42  74  E2      N/A
#SENECA         N/A         55  N/A N/A CALM    N/A
#SENECA 9NW     N/A         53  43  69  CALM    30.11S
$$

ORZ049-261810-
GRANDE RONDE VALLEY

CITY            SKY/WX      TMP DP  RH  WIND    PRES   REMARKS
LA GRANDE       CLOUDY      54  46  74  CALM    30.22S
#COVE           N/A         53  50  89  CALM    30.23R
#COVE SCHOOL    N/A         54  48  80  CALM    30.22R
#COVE 6NW       N/A         52  48  86  CALM    30.18S
#ELGIN 3N       N/A         59  49  69  CALM    30.60S
#ELGIN 1E       N/A         54  48  80  CALM    N/A
#IMBLER SCHOOL  N/A         54  46  74  CALM    30.16S
#ISLAND CITY 4N N/A         64  59  84  W1      30.15S
#UNION 1S       N/A         55  47  74  CALM    30.17R
$$

ORZ050-261810-
WALLOWA COUNTY

CITY            SKY/WX      TMP DP  RH  WIND    PRES   REMARKS
JOSEPH AIRPORT  CLOUDY      59  41  51  CALM    30.24S
#ENTERPRISE HS  N/A         60  49  67  CALM    30.05S
#IMNAHA SCHOOL  N/A         64  47  54  CALM    30.18F
#IMNAHA 10S     N/A         53  45  74  CALM    30.18F
#JOSEPH         N/A         58  40  51  W2      30.40R
#JOSEPH 3N      N/A         55  45  69  CALM    30.22S
#JOSEPH 3W      N/A         57  48  72  N3      30.58R
#LOSTINE        N/A         56  47  72  CALM    29.98S
#LOSTINE 3SE    N/A         57  44  62  CALM    30.28R
#MT HOWARD 8000 N/A         40  37  89  CALM    30.32S
#PROMISE 1S     N/A         56  48  74  CALM    30.24F
#WALLOWA LAKE   N/A         52  47  83  CALM    30.26S
#WALLOWA SCHOOL N/A         54  47  77  CALM    30.17S



$$



USA.gov is the U.S. government's official web portal to all federal, state and local government web resources and services.